• In Romania
  • List of Countries
  • For 7 days
  • Water Temperature
  • Satellite Maps
  • Weather Map
  • Weather Widgets
  • user-avatar
    Login

    Hourly Weather Igls

    Today, 19 January, Friday

    Time Temperature Precipitation Wind Pressure Humidity
    00:00 +3°C° 0.4 mm 2 mps 676 mmHg 88%
    01:00 +3°C° 0 mm 2 mps 676 mmHg 91%
    02:00 +3°C° 1.1 mm 2 mps 676 mmHg 92%
    03:00 +3°C° 1.1 mm 2 mps 675 mmHg 93%
    04:00 +3°C° 1.1 mm 2 mps 675 mmHg 93%
    05:00 +2°C° 1.6 mm 2 mps 676 mmHg 94%
    06:00 +2°C° 1.6 mm 2 mps 676 mmHg 94%
    07:00 +2°C° 0 mm 2 mps 676 mmHg 95%
    08:00 +2°C° 1.3 mm 2 mps 677 mmHg 95%
    09:00 +2°C° 1.3 mm 2 mps 677 mmHg 95%
    10:00 +1°C° 1.3 mm 3 mps 678 mmHg 95%
    11:00 +1°C° 0.4 mm 3 mps 678 mmHg 91%
    12:00 +1°C° 0.4 mm 3 mps 678 mmHg 88%
    13:00 +1°C° 0.4 mm 3 mps 678 mmHg 85%
    14:00 0°C° 0.2 mm 3 mps 678 mmHg 86%
    15:00 -1°C° 0.2 mm 2 mps 678 mmHg 88%
    16:00 -1°C° 0.2 mm 2 mps 679 mmHg 89%
    17:00 -2°C° 0.2 mm 2 mps 679 mmHg 90%
    18:00 -3°C° 0.2 mm 2 mps 679 mmHg 90%
    19:00 -4°C° 0.2 mm 2 mps 679 mmHg 91%
    20:00 -4°C° 0.2 mm 2 mps 679 mmHg 89%
    21:00 -3°C° 0.2 mm 1 mps 679 mmHg 88%
    22:00 -3°C° 0.2 mm 1 mps 679 mmHg 86%
    23:00 -3°C° 0.3 mm 1 mps 679 mmHg 87%

    Tomorrow, 20 January, Saturday

    Time Temperature Precipitation Wind Pressure Humidity
    00:00 -3°C° 0.3 mm 1 mps 679 mmHg 87%
    01:00 -2°C° 0.3 mm 1 mps 680 mmHg 88%
    02:00 -4°C° 0.3 mm 2 mps 680 mmHg 90%
    03:00 -4°C° 0.3 mm 2 mps 680 mmHg 91%
    04:00 -4°C° 0.3 mm 2 mps 680 mmHg 92%
    05:00 -4°C° 0.1 mm 2 mps 680 mmHg 92%
    06:00 -5°C° 0.1 mm 2 mps 680 mmHg 91%
    07:00 -5°C° 0.1 mm 2 mps 679 mmHg 90%
    08:00 -5°C° 0 mm 2 mps 679 mmHg 88%
    09:00 -4°C° 0 mm 2 mps 679 mmHg 86%
    10:00 -3°C° 0 mm 2 mps 679 mmHg 84%
    11:00 -2°C° 0.1 mm 2 mps 679 mmHg 80%
    12:00 -1°C° 0.1 mm 2 mps 678 mmHg 77%
    13:00 +1°C° 0.1 mm 2 mps 678 mmHg 73%
    14:00 +1°C° 0 mm 2 mps 677 mmHg 77%
    15:00 +1°C° 0 mm 2 mps 676 mmHg 81%
    16:00 -1°C° 0 mm 2 mps 676 mmHg 85%
    17:00 -2°C° 0.3 mm 2 mps 675 mmHg 86%
    18:00 -2°C° 0.3 mm 2 mps 675 mmHg 88%
    19:00 -3°C° 0.3 mm 2 mps 674 mmHg 90%
    20:00 -3°C° 1.1 mm 2 mps 674 mmHg 91%
    21:00 -3°C° 1.1 mm 2 mps 674 mmHg 93%
    22:00 -3°C° 1.1 mm 2 mps 674 mmHg 94%
    23:00 -3°C° 0.8 mm 2 mps 675 mmHg 94%

    Day after tomorrow, 21 January, Sunday

    Time Temperature Precipitation Wind Pressure Humidity
    00:00 -2°C° 0.8 mm 2 mps 675 mmHg 95%
    01:00 -2°C° 0.8 mm 2 mps 675 mmHg 95%
    02:00 -1°C° 1.1 mm 2 mps 675 mmHg 95%
    03:00 -1°C° 1.1 mm 2 mps 675 mmHg 96%
    04:00 -1°C° 1.1 mm 2 mps 675 mmHg 96%
    05:00 +1°C° 1.4 mm 2 mps 675 mmHg 96%
    06:00 +1°C° 1.4 mm 2 mps 676 mmHg 96%
    07:00 +1°C° 1.4 mm 2 mps 676 mmHg 96%
    08:00 +1°C° 1.7 mm 2 mps 676 mmHg 96%
    09:00 +1°C° 1.7 mm 2 mps 677 mmHg 96%
    10:00 +1°C° 1.7 mm 2 mps 678 mmHg 96%
    11:00 +1°C° 1.8 mm 2 mps 678 mmHg 96%
    12:00 +1°C° 1.8 mm 2 mps 678 mmHg 97%
    13:00 +1°C° 1.8 mm 2 mps 678 mmHg 97%
    14:00 +1°C° 1.8 mm 2 mps 678 mmHg 97%
    15:00 +2°C° 1.8 mm 1 mps 679 mmHg 96%
    16:00 +2°C° 1.8 mm 1 mps 679 mmHg 96%
    17:00 +1°C° 1.6 mm 1 mps 679 mmHg 96%
    18:00 +1°C° 1.6 mm 1 mps 680 mmHg 96%
    19:00 +1°C° 1.6 mm 1 mps 680 mmHg 96%
    20:00 +1°C° 1.8 mm 1 mps 680 mmHg 96%
    21:00 +2°C° 1.8 mm 1 mps 680 mmHg 96%
    22:00 +2°C° 1.8 mm 1 mps 681 mmHg 96%
    23:00 +3°C° 2.2 mm 1 mps 681 mmHg 96%

    22 January, Monday

    Time Temperature Precipitation Wind Pressure Humidity
    00:00 +3°C° 2.2 mm 1 mps 681 mmHg 96%
    01:00 +4°C° 2.2 mm 1 mps 681 mmHg 96%
    02:00 +4°C° 2.5 mm 1 mps 681 mmHg 96%
    03:00 +4°C° 2.5 mm 1 mps 681 mmHg 96%
    04:00 +5°C° 2.5 mm 1 mps 681 mmHg 97%
    05:00 +5°C° 3.1 mm 1 mps 681 mmHg 97%
    06:00 +4°C° 3.1 mm 2 mps 681 mmHg 97%
    07:00 +5°C° 3.1 mm 2 mps 681 mmHg 97%
    08:00 +5°C° 2.3 mm 2 mps 681 mmHg 97%
    09:00 +5°C° 2.3 mm 2 mps 681 mmHg 97%
    10:00 +6°C° 2.3 mm 2 mps 681 mmHg 97%
    11:00 +6°C° 2.2 mm 2 mps 681 mmHg 98%
    12:00 +6°C° 2.2 mm 2 mps 681 mmHg 98%
    13:00 +6°C° 2.2 mm 2 mps 680 mmHg 99%
    14:00 +6°C° 1.6 mm 2 mps 681 mmHg 98%
    15:00 +6°C° 1.6 mm 2 mps 681 mmHg 98%
    16:00 +5°C° 1.6 mm 3 mps 681 mmHg 98%
    17:00 +6°C° 0.1 mm 2 mps 681 mmHg 97%
    18:00 +5°C° 0.1 mm 2 mps 681 mmHg 96%
    19:00 +5°C° 0.1 mm 2 mps 681 mmHg 96%
    20:00 +5°C° 0.3 mm 2 mps 682 mmHg 96%
    21:00 +5°C° 0.3 mm 2 mps 682 mmHg 95%
    22:00 +5°C° 0.3 mm 2 mps 682 mmHg 95%
    23:00 +5°C° 0.7 mm 2 mps 682 mmHg 95%

    23 January, Tuesday

    Time Temperature Precipitation Wind Pressure Humidity
    00:00 +5°C° 0.7 mm 2 mps 683 mmHg 95%
    01:00 +5°C° 0.7 mm 2 mps 683 mmHg 95%
    02:00 +5°C° 1.1 mm 2 mps 683 mmHg 95%
    03:00 +5°C° 1.1 mm 2 mps 684 mmHg 95%
    04:00 +5°C° 1.1 mm 2 mps 684 mmHg 96%
    05:00 +5°C° 1.4 mm 2 mps 685 mmHg 96%
    06:00 +5°C° 1.4 mm 2 mps 686 mmHg 96%
    07:00 +5°C° 1.4 mm 2 mps 686 mmHg 97%
    08:00 +5°C° 0.3 mm 2 mps 687 mmHg 97%
    09:00 +5°C° 0.3 mm 2 mps 688 mmHg 98%
    10:00 +5°C° 0.3 mm 2 mps 688 mmHg 98%
    11:00 +5°C° 0 mm 2 mps 688 mmHg 98%
    12:00 +6°C° 0 mm 2 mps 689 mmHg 98%
    13:00 +6°C° 0 mm 2 mps 689 mmHg 99%
    14:00 +5°C° 0 mm 2 mps 689 mmHg 98%
    15:00 +6°C° 0 mm 1 mps 689 mmHg 97%
    16:00 +6°C° 0 mm 1 mps 689 mmHg 96%
    17:00 +5°C° 0 mm 1 mps 690 mmHg 93%
    18:00 +3°C° 0 mm 1 mps 690 mmHg 89%
    19:00 +2°C° 0 mm 1 mps 690 mmHg 86%
    20:00 +2°C° 0 mm 1 mps 690 mmHg 81%
    21:00 +2°C° 0 mm 1 mps 691 mmHg 76%
    22:00 +2°C° 0 mm 1 mps 691 mmHg 71%
    23:00 +2°C° 0 mm 1 mps 691 mmHg 69%

    24 January, Wednesday

    Time Temperature Precipitation Wind Pressure Humidity
    00:00 +2°C° 0 mm 1 mps 691 mmHg 66%
    01:00 +2°C° 0 mm 1 mps 691 mmHg 64%
    02:00 +2°C° 0 mm 1 mps 691 mmHg 63%
    03:00 +2°C° 0 mm 1 mps 691 mmHg 62%
    04:00 +1°C° 0 mm 1 mps 691 mmHg 61%
    05:00 +2°C° 0 mm 1 mps 691 mmHg 62%
    06:00 +1°C° 0 mm 2 mps 691 mmHg 62%
    07:00 +1°C° 0 mm 2 mps 691 mmHg 62%
    08:00 +2°C° 0 mm 2 mps 692 mmHg 66%
    09:00 +4°C° 0 mm 2 mps 692 mmHg 70%
    10:00 +5°C° 0 mm 2 mps 692 mmHg 74%
    11:00 +6°C° 0 mm 2 mps 692 mmHg 80%
    12:00 +7°C° 0 mm 1 mps 691 mmHg 87%
    13:00 +8°C° 0 mm 1 mps 691 mmHg 93%
    14:00 +7°C° 0 mm 2 mps 691 mmHg 91%
    15:00 +6°C° 0 mm 2 mps 691 mmHg 88%
    16:00 +6°C° 0 mm 2 mps 691 mmHg 85%
    17:00 +5°C° 0 mm 2 mps 691 mmHg 80%
    18:00 +4°C° 0 mm 2 mps 691 mmHg 75%
    19:00 +2°C° 0 mm 2 mps 691 mmHg 70%
    20:00 +2°C° 0 mm 2 mps 690 mmHg 68%
    21:00 +2°C° 0 mm 2 mps 690 mmHg 67%
    22:00 +2°C° 0 mm 2 mps 690 mmHg 65%
    23:00 +2°C° 0 mm 2 mps 690 mmHg 65%
    Show more